[[{"header":{"parameterUnit":"m.s-1","parameterCategory":2,"la1":30.2991,"la2":30.254,"lo1":-89.0895,"lo2":-89.0444,"dy":0.0017,"dx":0.0017,"nx":28,"ny":28,"refTime":"2023-05-01T21:00:00:Z","depth":"0","parameterNumber":2,"parameterNumberName":"U-component_of_CURRENTS"},"data":[0,0,0,0,0,0,0,0,0,0,0,0,0,0,0,0,0,0,0,0,0,0,0,0,0,0,0,0,0,0,0,0,0,0,0,0,0,0,0,0,0,0,0,0,0,0,0,0,0,0,0,0,0,0,0,0,0,0,0.4544,0.4546,0,0.4643,0.4644,0.4645,0.4632,0.4631,0.4629,0.4628,0.4542,0.4541,0.454,0,0,0,0,0,0,0,0,0,0,0,0,0,0.4387,0.439,0.4544,0.4546,0.4547,0.4643,0.4644,0.4645,0.4632,0.463,0.4629,0.4627,0.4543,0.4541,0.454,0,0,0,0,0,0,0,0,0,0,0,0,0,0.4465,0.439,0.4544,0.4554,0.4556,0.4642,0.4644,0.4645,0.4633,0.463,0.4628,0.4626,0.4543,0.4541,0.454,0.4573,0,0,0.4536,0.4535,0,0,0,0,0,0,0,0,0.4461,0.447,0.4551,0.4554,0.4556,0.4625,0.4557,0.4613,0.4633,0.4601,0.4628,0.4625,0.4556,0.4553,0.4576,0.4569,0.4565,0.4535,0.4534,0.4534,0.4533,0,0,0,0,0,0,0,0.4455,0.4466,0.4581,0.4553,0.4556,0.4568,0.4576,0.4568,0.4584,0.4604,0.4604,0.4619,0.4555,0.4577,0.4573,0.4564,0.4535,0.4534,0.4533,0.4533,0.4565,0.4567,0,0,0,0,0,0,0.4449,0.4462,0.4578,0.4584,0.4505,0.4573,0.4582,0.4603,0.4588,0.4586,0.4621,0.4618,0.4581,0.4575,0.457,0.4569,0.4534,0.4532,0.4532,0.4563,0.4565,0.4567,0,0,0,0,0,0,0.4445,0.4458,0.4574,0.4526,0.4542,0.4578,0.4602,0.4606,0.4615,0.4603,0.4596,0.4624,0.4579,0.4572,0.4565,0.4566,0.4532,0.453,0.4561,0.4564,0.4566,0.459,0,0,0,0,0,0,0.444,0.4457,0.4448,0.4526,0.4544,0.4579,0.4604,0.461,0.463,0.4627,0.4604,0.4595,0.4577,0.4567,0.4563,0.4563,0.4529,0.4559,0.4562,0.4565,0.4587,0.4593,0.4599,0,0,0,0,0,0.4434,0.4421,0.4448,0.4461,0.4539,0.4578,0.4586,0.4604,0.4632,0.4611,0.4632,0.4595,0.4585,0.4568,0.4562,0.4562,0.4557,0.4561,0.4565,0.4585,0.4592,0.4598,0,0,0,0,0,0,0.4336,0.4422,0.4451,0.4462,0.4501,0.4575,0.4564,0.4607,0.4616,0.4614,0.4615,0.4607,0.4603,0.4591,0.4573,0.4587,0.4566,0.4569,0.4583,0.459,0.4595,0.4576,0.4528,0,0,0,0,0,0.432,0.4339,0.4417,0.4423,0.4442,0.4513,0.4531,0.4556,0.459,0.4593,0.4593,0.4604,0.4623,0.461,0.4608,0.4613,0.4637,0.4614,0.4619,0.4624,0.4609,0.4693,0.4704,0.458,0.458,0.458,0,0,0.429,0.4336,0.4348,0.4404,0.4443,0.4465,0.4515,0.4538,0.4554,0.4581,0.4582,0.4614,0.4631,0.4639,0.4636,0.4621,0.4675,0.4629,0.4632,0.4614,0.4698,0.471,0.4721,0.4583,0.4582,0.4582,0,0,0.424,0.4278,0.4279,0.4313,0.4367,0.4413,0.442,0.4491,0.4505,0.4538,0.4576,0.4614,0.4621,0.4646,0.4663,0.4702,0.4706,0.4703,0.4705,0.4788,0.4798,0.4808,0.486,0.4874,0.4702,0.4702,0.4702,0,0.4201,0.4219,0.4277,0.4289,0.4314,0.439,0.4399,0.4433,0.4491,0.4518,0.4521,0.462,0.4627,0.4681,0.4703,0.4709,0.4755,0.4674,0.4794,0.4804,0.4813,0.4865,0.488,0.4703,0.4703,0.4703,0.4703,0,0.4165,0.4175,0.4175,0.4226,0.4252,0.4266,0.4337,0.4357,0.4409,0.4468,0.4528,0.4581,0.464,0.4664,0.4695,0.4772,0.4783,0.4795,0.4772,0.4827,0.4878,0.4894,0.4706,0.4705,0.4705,0.4704,0,0,0.4091,0.4144,0.414,0.4157,0.4224,0.4247,0.4273,0.4331,0.4365,0.4431,0.4485,0.4567,0.4629,0.4655,0.4711,0.4785,0.4903,0.4821,0.4825,0.4863,0.5081,0.5063,0.5078,0.4951,0.4953,0.4955,0.5092,0,0.4045,0.4053,0.4093,0.4098,0.4112,0.4185,0.4207,0.4272,0.4335,0.4395,0.4494,0.4556,0.4616,0.466,0.4752,0.4859,0.4944,0.4863,0.5029,0.5032,0.5003,0.5095,0.5064,0.5181,0.5107,0.5109,0.5111,0,0.3988,0.4007,0.4002,0.4054,0.4067,0.408,0.4146,0.4176,0.4281,0.4336,0.4437,0.452,0.4641,0.4683,0.4897,0.4851,0.4969,0.5053,0.5061,0.504,0.5044,0.5115,0.5212,0.4981,0.5135,0.5133,0.5131,0,0.3905,0.3939,0.3932,0.395,0.4018,0.4027,0.4066,0.4157,0.4192,0.4299,0.4352,0.4505,0.4583,0.4754,0.494,0.4936,0.517,0.518,0.5273,0.5271,0.527,0.5263,0.515,0.5341,0.5341,0.5341,0.534,0,0.3837,0.3825,0.3892,0.3887,0.3886,0.3963,0.3978,0.4034,0.413,0.4178,0.4317,0.4392,0.4614,0.4776,0.4941,0.5151,0.5179,0.5285,0.5318,0.5277,0.5271,0.5087,0.4992,0.5346,0.5345,0.5344,0.5343,0,0.3728,0.3767,0.376,0.3823,0.3837,0.3835,0.3911,0.3936,0.4033,0.4098,0.4133,0.4331,0.4549,0.4765,0.5035,0.5141,0.5216,0.5407,0.5326,0.5346,0.5192,0.5103,0.4892,0.4838,0.5526,0.5527,0.5527,0,0.3667,0.3655,0.3696,0.369,0.3706,0.373,0.3748,0.3857,0.39,0.4062,0.4092,0.4315,0.4481,0.4852,0.5112,0.5391,0.5235,0.5469,0.5452,0.5179,0.5105,0.4854,0.4807,0.5469,0.5469,0.5469,0.5469,0,0.3554,0.3567,0.3571,0.3569,0.3573,0.36,0.3646,0.3671,0.3802,0.3883,0.4017,0.4158,0.4546,0.4799,0.5149,0.5358,0.5207,0.5475,0.5236,0.5081,0.4762,0.4727,0.5346,0.5468,0.5468,0.5468,0.5468,0.5468,0.3461,0.3442,0.3455,0.344,0.3448,0.3467,0.3466,0.3554,0.362,0.3733,0.3903,0.4098,0.4454,0.4973,0.514,0.53,0.522,0.5226,0.5155,0.4931,0.4811,0.54,0.5523,0.5523,0.5523,0.5523,0.5524,0,0.3341,0.3342,0.3333,0.332,0.3292,0.3346,0.3391,0.3399,0.3451,0.3615,0.3746,0.4082,0.4377,0.4712,0.5026,0.4952,0.4867,0.4819,0.4459,0.4456,0.5045,0.4971,0.4925,0.4925,0.4925,0.4926,0.4926,0.4926,0.3277,0.3227,0.3233,0.3163,0.316,0.3128,0.3139,0.318,0.3287,0.3417,0.3579,0.3761,0.4038,0.4325,0.444,0.4476,0.4192,0.4036,0.3949,0.4338,0.4367,0.4395,0.4296,0.411,0.4109,0.3294,0.3287,0.3282]},{"header":{"parameterUnit":"m.s-1","parameterCategory":2,"la1":30.2991,"la2":30.254,"lo1":-89.0895,"lo2":-89.0444,"dy":0.0017,"dx":0.0017,"nx":28,"ny":28,"refTime":"2023-05-01T21:00:00:Z","depth":"0","parameterNumber":3,"parameterNumberName":"V-component_of_CURRENTS"},"data":[0,0,0,0,0,0,0,0,0,0,0,0,0,0,0,0,0,0,0,0,0,0,0,0,0,0,0,0,0,0,0,0,0,0,0,0,0,0,0,0,0,0,0,0,0,0,0,0,0,0,0,0,0,0,0,0,0,0,0.0494,0.0494,0,0.0496,0.0496,0.0496,0.048,0.048,0.048,0.0479,0.039,0.0388,0.0386,0,0,0,0,0,0,0,0,0,0,0,0,0,0.0502,0.0501,0.0494,0.0494,0.0494,0.0496,0.0496,0.0496,0.048,0.048,0.048,0.0479,0.0391,0.0388,0.0386,0,0,0,0,0,0,0,0,0,0,0,0,0,0.0499,0.0501,0.0494,0.0488,0.0487,0.0496,0.0496,0.0496,0.048,0.048,0.0479,0.0479,0.0392,0.0389,0.0386,0.0376,0,0,0.0376,0.0375,0,0,0,0,0,0,0,0,0.0499,0.0499,0.0489,0.0488,0.0488,0.0489,0.0466,0.0451,0.048,0.0482,0.0479,0.0479,0.0416,0.0411,0.0412,0.0371,0.0368,0.0376,0.0374,0.0373,0.0372,0,0,0,0,0,0,0,0.0499,0.0499,0.0493,0.0489,0.0488,0.0493,0.0492,0.0464,0.0449,0.0481,0.0481,0.0483,0.0415,0.0415,0.0409,0.0366,0.0376,0.0373,0.0371,0.037,0.0346,0.0347,0,0,0,0,0,0,0.0501,0.0499,0.0493,0.0494,0.0494,0.0494,0.0492,0.0488,0.0451,0.0446,0.0484,0.0482,0.042,0.0413,0.0406,0.0433,0.0373,0.037,0.0368,0.0345,0.0346,0.0347,0,0,0,0,0,0,0.0501,0.05,0.0493,0.0498,0.0497,0.0494,0.0489,0.0488,0.049,0.0454,0.0447,0.0488,0.042,0.041,0.0404,0.0428,0.0368,0.0365,0.0343,0.0345,0.0347,0.0461,0,0,0,0,0,0,0.0501,0.05,0.0498,0.0498,0.0497,0.0513,0.049,0.0488,0.0493,0.0492,0.0455,0.0446,0.0419,0.041,0.0401,0.0422,0.0363,0.0342,0.0344,0.0346,0.0455,0.0466,0.0476,0,0,0,0,0,0.0501,0.0505,0.0497,0.0497,0.0494,0.0514,0.0515,0.051,0.0494,0.0507,0.0489,0.0447,0.0418,0.0408,0.0398,0.0419,0.034,0.0343,0.0346,0.0451,0.0464,0.0475,0,0,0,0,0,0,0.0508,0.0504,0.0496,0.0497,0.051,0.0512,0.052,0.0515,0.0511,0.0504,0.0465,0.0456,0.0455,0.0423,0.0413,0.0419,0.0371,0.0372,0.0454,0.0466,0.0476,0.0482,0.036,0,0,0,0,0,0.0508,0.0508,0.0512,0.0515,0.0521,0.052,0.0525,0.0525,0.0522,0.052,0.0502,0.0477,0.0459,0.0452,0.0428,0.0434,0.0394,0.0439,0.045,0.0458,0.0457,0.0434,0.0442,0.0357,0.0357,0.0356,0,0,0.0512,0.051,0.051,0.0517,0.0521,0.0546,0.0522,0.0538,0.0558,0.0508,0.0529,0.0506,0.0466,0.0478,0.0474,0.0455,0.0463,0.0462,0.047,0.0463,0.0437,0.0446,0.0453,0.0358,0.0358,0.0358,0,0,0.0536,0.0519,0.0535,0.0551,0.0565,0.0566,0.0573,0.0585,0.0588,0.0607,0.0576,0.0578,0.0551,0.0545,0.0531,0.0579,0.0512,0.0565,0.0627,0.0606,0.0613,0.0618,0.0585,0.0586,0.0577,0.0577,0.0578,0,0.0544,0.0559,0.0546,0.0576,0.0593,0.0578,0.0613,0.0617,0.063,0.0639,0.0625,0.0611,0.0586,0.0597,0.0623,0.0603,0.057,0.0588,0.062,0.0624,0.0628,0.0592,0.0592,0.0583,0.0583,0.0582,0.0581,0,0.0587,0.0604,0.0618,0.0644,0.0662,0.0688,0.0696,0.0711,0.0708,0.0716,0.0729,0.0708,0.0698,0.07,0.0677,0.0696,0.0657,0.0631,0.0592,0.0643,0.0602,0.06,0.0592,0.0589,0.0588,0.0586,0,0,0.0596,0.0639,0.0645,0.0672,0.07,0.072,0.075,0.0777,0.0798,0.0806,0.0836,0.0828,0.0811,0.0794,0.0769,0.0768,0.0777,0.072,0.0716,0.0691,0.0719,0.0688,0.0681,0.0755,0.0756,0.0756,0.0682,0,0.0636,0.0696,0.0709,0.0772,0.0802,0.0807,0.084,0.0861,0.0867,0.0894,0.0874,0.0887,0.0846,0.085,0.084,0.0793,0.0776,0.0798,0.0667,0.0663,0.0633,0.068,0.0723,0.066,0.068,0.068,0.0679,0,0.0674,0.0708,0.0771,0.0832,0.0847,0.0881,0.0921,0.0953,0.0974,0.0981,0.0984,0.0962,0.0962,0.0919,0.0853,0.0866,0.0796,0.0757,0.0752,0.0679,0.0629,0.0609,0.0655,0.054,0.0676,0.0676,0.0676,0,0.0677,0.0753,0.0799,0.0822,0.0885,0.0913,0.0945,0.0978,0.1009,0.1034,0.1059,0.1034,0.103,0.0953,0.0864,0.0857,0.0782,0.0755,0.0654,0.065,0.0637,0.0632,0.0559,0.0693,0.0693,0.0693,0.0694,0,0.0707,0.0748,0.0804,0.0832,0.0895,0.0933,0.0994,0.1021,0.1066,0.1113,0.1099,0.1129,0.1039,0.0984,0.0886,0.0767,0.0786,0.0668,0.0635,0.0678,0.0678,0.0534,0.0442,0.0691,0.0691,0.0692,0.0692,0,0.0705,0.0741,0.08,0.0871,0.0897,0.0939,0.1024,0.1071,0.1109,0.1167,0.1181,0.1194,0.1149,0.1038,0.0922,0.0799,0.0617,0.0632,0.0684,0.0659,0.046,0.0373,0.0235,0.0166,0.0518,0.0517,0.0516,0,0.0708,0.0737,0.0817,0.0859,0.0894,0.0962,0.1017,0.1078,0.1132,0.1212,0.1248,0.1238,0.126,0.1083,0.0893,0.0711,0.0587,0.0582,0.0578,0.046,0.0338,0.0294,0.0243,0.0605,0.0605,0.0605,0.0605,0,0.0721,0.0745,0.0798,0.0878,0.094,0.1017,0.11,0.1146,0.1223,0.1286,0.1367,0.1402,0.1271,0.1168,0.0919,0.0763,0.0502,0.0572,0.0447,0.0397,0.0347,0.0263,0.0627,0.0604,0.0604,0.0604,0.0604,0.0604,0.073,0.0773,0.0844,0.0922,0.0992,0.1084,0.1155,0.1242,0.1343,0.1481,0.1483,0.1617,0.1455,0.1167,0.0891,0.0493,0.0473,0.0397,0.0299,0.0265,0.0205,0.0556,0.0496,0.0496,0.0495,0.0495,0.0495,0,0.0759,0.0822,0.0894,0.0997,0.1075,0.1108,0.1227,0.1315,0.1442,0.161,0.1709,0.1832,0.1534,0.1208,0.0674,0.0323,0.0192,0.0133,0.0094,0.0052,0.0375,0.0388,0.0306,0.0307,0.0307,0.0307,0.0307,0.0307,0.0789,0.0867,0.0914,0.1056,0.1127,0.1245,0.1318,0.1449,0.16,0.1881,0.2089,0.2251,0.21,0.106,0.0334,0.0095,-0.015,-0.0205,-0.0348,-0.011,-0.0091,-0.0074,-0.008,-0.0258,-0.0259,-0.0581,-0.0584,-0.0587]}],[{"header":{"parameterUnit":"m.s-1","parameterCategory":2,"la1":30.2991,"la2":30.254,"lo1":-89.0895,"lo2":-89.0444,"dy":0.0017,"dx":0.0017,"nx":28,"ny":28,"refTime":"2023-05-01T21:00:00:Z","depth":"2","parameterNumber":2,"parameterNumberName":"U-component_of_CURRENTS"},"data":[0,0,0,0,0,0,0,0,0,0,0,0,0,0,0,0,0,0,0,0,0,0,0,0,0,0,0,0,0,0,0,0,0,0,0,0,0,0,0,0,0,0,0,0,0,0,0,0,0,0,0,0,0,0,0,0,0,0,0.0326,0.0326,0,0.0385,0.0386,0.0386,0.0431,0.0431,0.0432,0.0432,0.0448,0.0448,0.0448,0,0,0,0,0,0,0,0,0,0,0,0,0,0.0273,0.0273,0.0325,0.0326,0.0327,0.0385,0.0386,0.0386,0.0431,0.0431,0.0432,0.0433,0.0448,0.0448,0.0448,0,0,0,0,0,0,0,0,0,0,0,0,0,0.0309,0.0273,0.0325,0.0357,0.0361,0.0385,0.0386,0.0387,0.0431,0.0431,0.0432,0.0433,0.0448,0.0448,0.0448,0.0432,0,0,0.0448,0.0448,0,0,0,0,0,0,0,0,0.0307,0.0311,0.0352,0.0355,0.0359,0.0403,0.0373,0.04,0.043,0.0403,0.0432,0.0433,0.0429,0.0431,0.0439,0.0432,0.0433,0.0448,0.0448,0.0448,0.0448,0,0,0,0,0,0,0,0.0304,0.0308,0.0348,0.0353,0.0357,0.0377,0.0382,0.0379,0.0409,0.0405,0.0409,0.0418,0.0431,0.0439,0.0439,0.0433,0.0448,0.0448,0.0448,0.0448,0.0511,0.0513,0,0,0,0,0,0,0.0298,0.0306,0.0346,0.035,0.0336,0.0377,0.0383,0.0387,0.041,0.0415,0.0417,0.0419,0.0439,0.044,0.044,0.0535,0.0448,0.0448,0.0448,0.051,0.0512,0.0514,0,0,0,0,0,0,0.0296,0.03,0.0343,0.0331,0.0338,0.0377,0.0381,0.0388,0.0427,0.042,0.0424,0.0453,0.0439,0.044,0.0474,0.0531,0.0448,0.0447,0.0508,0.051,0.0513,0.0651,0,0,0,0,0,0,0.0294,0.0299,0.0314,0.033,0.0338,0.038,0.038,0.0388,0.0429,0.0434,0.0451,0.0452,0.044,0.0475,0.0474,0.053,0.0447,0.0505,0.0509,0.0512,0.0644,0.0658,0.067,0,0,0,0,0,0.0292,0.0308,0.0314,0.032,0.0352,0.0381,0.0388,0.0417,0.0431,0.0454,0.0473,0.0453,0.0495,0.0476,0.0475,0.0532,0.0504,0.0508,0.0512,0.0638,0.0655,0.0669,0,0,0,0,0,0,0.0303,0.0315,0.0322,0.0344,0.0371,0.039,0.0419,0.0435,0.0468,0.0481,0.0473,0.0475,0.0524,0.0503,0.0482,0.0557,0.0497,0.0501,0.0593,0.0609,0.0621,0.064,0.0447,0,0,0,0,0,0.0307,0.0322,0.0338,0.0363,0.0376,0.0402,0.0424,0.0443,0.0467,0.0485,0.0503,0.0517,0.0534,0.0553,0.0554,0.0596,0.0618,0.063,0.0643,0.0654,0.0668,0.0739,0.0761,0.0527,0.0527,0.0527,0,0,0.0321,0.0331,0.0341,0.0367,0.039,0.0423,0.0418,0.046,0.0502,0.0478,0.0551,0.0558,0.0551,0.0604,0.0624,0.0601,0.0742,0.0659,0.0669,0.0677,0.0746,0.0769,0.079,0.0529,0.0529,0.0529,0,0,0.0353,0.0362,0.0386,0.0409,0.0447,0.0459,0.0478,0.0517,0.0551,0.0607,0.0607,0.0653,0.0679,0.0698,0.0705,0.0784,0.08,0.0791,0.0886,0.0956,0.0977,0.0995,0.1102,0.1128,0.0807,0.0808,0.0808,0,0.0378,0.04,0.0403,0.0436,0.0465,0.048,0.0523,0.0554,0.0608,0.065,0.0647,0.0734,0.0723,0.08,0.0837,0.0816,0.0876,0.0832,0.0977,0.0994,0.1011,0.1115,0.1142,0.0815,0.0814,0.0813,0.0813,0,0.0421,0.0451,0.0472,0.0512,0.0543,0.0583,0.0617,0.0669,0.071,0.075,0.0846,0.0857,0.0918,0.0923,0.0908,0.1025,0.1041,0.098,0.0945,0.1043,0.1147,0.1173,0.0825,0.0823,0.082,0.0819,0,0,0.0458,0.0494,0.0507,0.0537,0.0588,0.0618,0.069,0.0762,0.084,0.0898,0.1007,0.1047,0.1083,0.1092,0.1095,0.1156,0.1331,0.114,0.114,0.1261,0.1547,0.1505,0.1529,0.1314,0.1318,0.1322,0.1591,0,0.0503,0.0559,0.0573,0.0648,0.0682,0.0719,0.079,0.086,0.0934,0.1043,0.1083,0.1176,0.1139,0.1199,0.1261,0.1308,0.14,0.1266,0.1419,0.1424,0.1386,0.1556,0.1222,0.1429,0.1617,0.1621,0.1624,0,0.055,0.0579,0.0643,0.0716,0.0739,0.0791,0.0915,0.0983,0.1115,0.1183,0.1291,0.1333,0.1458,0.139,0.1569,0.1501,0.1549,0.1572,0.1582,0.1507,0.1429,0.1348,0.1469,0.1667,0.1664,0.1661,0.1658,0,0.0566,0.0637,0.0685,0.071,0.079,0.0847,0.0909,0.1037,0.1122,0.129,0.1388,0.1521,0.1624,0.1695,0.1778,0.1699,0.1971,0.185,0.1865,0.1864,0.1587,0.1554,0.1978,0.1978,0.1977,0.1976,0.1976,0,0.0604,0.065,0.0699,0.0728,0.0821,0.0876,0.1008,0.1095,0.1243,0.1371,0.1473,0.1613,0.1708,0.1863,0.1884,0.2008,0.2074,0.1938,0.1942,0.163,0.1599,0.1777,0.1749,0.1986,0.1984,0.1982,0.1981,0,0.0621,0.0646,0.0708,0.0791,0.0826,0.09,0.1044,0.1139,0.1288,0.1465,0.1529,0.1744,0.1965,0.2069,0.2228,0.2165,0.2251,0.2265,0.1924,0.1882,0.2069,0.2046,0.2306,0.2307,0.2308,0.2308,0.2309,0,0.0636,0.0662,0.0745,0.0783,0.0825,0.0933,0.101,0.1153,0.1259,0.1541,0.1628,0.1906,0.2057,0.2315,0.226,0.2336,0.2405,0.2088,0.1833,0.2132,0.211,0.2085,0.2061,0.1549,0.1543,0.1539,0.1535,0,0.0666,0.0689,0.0729,0.0803,0.0876,0.0967,0.109,0.1168,0.1356,0.1513,0.1756,0.1894,0.2097,0.2052,0.215,0.2099,0.2037,0.1996,0.2434,0.1505,0.1435,0.1407,0.1406,0.1494,0.1498,0.1501,0.1503,0.1505,0.0691,0.0722,0.0766,0.0835,0.0901,0.0988,0.1058,0.1183,0.134,0.1496,0.168,0.1757,0.1729,0.1694,0.1757,0.178,0.1845,0.1684,0.1691,0.1704,0.1556,0.1489,0.1534,0.1538,0.1542,0.1545,0.1548,0,0.0736,0.0756,0.0801,0.0875,0.0919,0.0974,0.1096,0.1132,0.1272,0.1363,0.1484,0.1256,0.1214,0.1341,0.1265,0.1271,0.1165,0.1274,0.1095,0.1129,0.1162,0.0982,0.0812,0.0813,0.0813,0.0813,0,0,0.0766,0.0801,0.0809,0.087,0.0916,0.0981,0.1035,0.1074,0.1124,0.1117,0.1074,0.0979,0.1102,0.0871,0.0873,0.0909,0.1022,0.0848,0.1388,0.1198,0.1233,0.1299,0.1049,0,0,0,0,0]},{"header":{"parameterUnit":"m.s-1","parameterCategory":2,"la1":30.2991,"la2":30.254,"lo1":-89.0895,"lo2":-89.0444,"dy":0.0017,"dx":0.0017,"nx":28,"ny":28,"refTime":"2023-05-01T21:00:00:Z","depth":"2","parameterNumber":3,"parameterNumberName":"V-component_of_CURRENTS"},"data":[0,0,0,0,0,0,0,0,0,0,0,0,0,0,0,0,0,0,0,0,0,0,0,0,0,0,0,0,0,0,0,0,0,0,0,0,0,0,0,0,0,0,0,0,0,0,0,0,0,0,0,0,0,0,0,0,0,0,0.0064,0.0063,0,-0.0005,-0.0005,-0.0006,-0.0039,-0.0039,-0.0039,-0.0039,-0.0178,-0.0182,-0.0186,0,0,0,0,0,0,0,0,0,0,0,0,0,0.0118,0.0117,0.0064,0.0063,0.0062,-0.0004,-0.0005,-0.0007,-0.0039,-0.0039,-0.0039,-0.0039,-0.0177,-0.0181,-0.0186,0,0,0,0,0,0,0,0,0,0,0,0,0,0.0075,0.0117,0.0064,0.0039,0.0036,-0.0004,-0.0006,-0.0007,-0.0039,-0.0039,-0.0039,-0.0038,-0.0175,-0.0181,-0.0187,-0.0227,0,0,-0.0204,-0.0207,0,0,0,0,0,0,0,0,0.0078,0.0073,0.0044,0.0041,0.0038,-0.0012,-0.0038,-0.0084,-0.0039,-0.0012,-0.0039,-0.0038,-0.0128,-0.0138,-0.0152,-0.0234,-0.024,-0.0205,-0.0208,-0.0211,-0.0212,0,0,0,0,0,0,0,0.0081,0.0075,0.0035,0.0043,0.0039,0.0015,0.001,-0.0046,-0.0073,-0.0014,-0.0017,-0.0022,-0.013,-0.0147,-0.0156,-0.0242,-0.0205,-0.021,-0.0213,-0.0216,-0.0405,-0.0406,0,0,0,0,0,0,0.0094,0.0078,0.0037,0.0033,0.006,0.0014,0.0008,0.0003,-0.0071,-0.0081,-0.0022,-0.0023,-0.0137,-0.0149,-0.0161,-0.0223,-0.0211,-0.0216,-0.022,-0.0403,-0.0405,-0.0407,0,0,0,0,0,0,0.0096,0.0091,0.004,0.0056,0.0048,0.0014,0.0007,0.0001,-0.002,-0.0076,-0.0087,-0.0036,-0.0137,-0.0153,-0.022,-0.0228,-0.0219,-0.0224,-0.0401,-0.0404,-0.0406,-0.0341,0,0,0,0,0,0,0.0097,0.0092,0.0089,0.0057,0.0047,0.0015,0.0007,-0.0,-0.0022,-0.0024,-0.0092,-0.0104,-0.0138,-0.0211,-0.0226,-0.0236,-0.0229,-0.0399,-0.0402,-0.0405,-0.0341,-0.034,-0.034,0,0,0,0,0,0.01,0.0091,0.0089,0.0084,0.0046,0.0015,0.0007,-0.0017,-0.0023,-0.0035,-0.0084,-0.0102,-0.024,-0.0217,-0.0234,-0.0246,-0.0398,-0.0402,-0.0405,-0.0341,-0.034,-0.034,0,0,0,0,0,0,0.0104,0.0086,0.0084,0.0068,0.0046,0.001,-0.0006,-0.0019,-0.0066,-0.0073,-0.0123,-0.0139,-0.0202,-0.0242,-0.0215,-0.0313,-0.0323,-0.033,-0.0269,-0.0269,-0.0268,-0.0214,-0.0233,0,0,0,0,0,0.0108,0.01,0.0078,0.0064,0.0054,0.0025,0.0009,-0.0007,-0.0049,-0.0068,-0.0111,-0.017,-0.023,-0.0261,-0.0319,-0.0373,-0.0393,-0.0395,-0.0395,-0.0394,-0.0364,-0.0429,-0.043,-0.0418,-0.0418,-0.0418,0,0,0.0105,0.0094,0.0088,0.0065,0.0045,0.0038,0.0015,-0.0012,-0.0017,-0.0079,-0.011,-0.0172,-0.0247,-0.0303,-0.0334,-0.0335,-0.0407,-0.0398,-0.0396,-0.0367,-0.0432,-0.0433,-0.0434,-0.042,-0.042,-0.042,0,0,0.0104,0.0087,0.0088,0.0075,0.0052,0.0034,0.0029,-0.0005,-0.0021,-0.0063,-0.0111,-0.0174,-0.0258,-0.0306,-0.0344,-0.0382,-0.0406,-0.041,-0.0358,-0.0422,-0.0422,-0.0422,-0.0432,-0.0434,-0.0406,-0.0406,-0.0405,0,0.0105,0.011,0.008,0.0082,0.0081,0.0039,0.0047,0.0017,-0.0033,-0.0038,-0.0066,-0.0182,-0.0254,-0.0312,-0.0326,-0.0377,-0.0396,-0.0346,-0.0416,-0.0417,-0.0419,-0.043,-0.0433,-0.0403,-0.0403,-0.0403,-0.0404,0,0.0113,0.012,0.0115,0.0114,0.0102,0.0095,0.0067,0.005,0.0024,0.0005,-0.0053,-0.015,-0.0206,-0.0258,-0.0303,-0.0352,-0.0356,-0.0407,-0.0403,-0.0415,-0.0427,-0.0431,-0.0399,-0.04,-0.0401,-0.0401,0,0,0.0123,0.0126,0.0127,0.0152,0.0126,0.0124,0.011,0.0101,0.0118,0.0042,0.0055,-0.0077,-0.0111,-0.0157,-0.0233,-0.0294,-0.0335,-0.0343,-0.0347,-0.0324,-0.0431,-0.0369,-0.0368,-0.0398,-0.0399,-0.04,-0.0427,0,0.015,0.0179,0.0166,0.0199,0.022,0.0191,0.0195,0.0176,0.0153,0.0149,0.0048,0.0014,-0.0079,-0.0103,-0.018,-0.0295,-0.0345,-0.0319,-0.0446,-0.0448,-0.037,-0.0371,-0.0395,-0.0416,-0.0431,-0.0432,-0.0432,0,0.018,0.0201,0.0242,0.0283,0.0289,0.0297,0.0322,0.0324,0.0296,0.028,0.0229,0.0158,0.0067,-0.002,-0.0192,-0.0167,-0.0281,-0.0376,-0.0381,-0.0341,-0.0394,-0.0415,-0.0423,-0.0439,-0.0439,-0.0438,-0.0438,0,0.0233,0.0264,0.0308,0.0316,0.0338,0.0359,0.0374,0.0368,0.0398,0.0373,0.0394,0.0269,0.0229,0.0055,-0.0127,-0.0166,-0.0299,-0.0389,-0.0434,-0.043,-0.048,-0.0478,-0.0507,-0.0507,-0.0507,-0.0507,-0.0507,0,0.0287,0.0324,0.0341,0.0368,0.0436,0.0431,0.0502,0.0502,0.0524,0.058,0.0477,0.0499,0.0243,0.0137,-0.0063,-0.0221,-0.0252,-0.0398,-0.0434,-0.0457,-0.0452,-0.0505,-0.0504,-0.0508,-0.0508,-0.0508,-0.0508,0,0.0344,0.0352,0.041,0.0446,0.0466,0.0518,0.0592,0.0642,0.0663,0.0735,0.0734,0.067,0.0549,0.0317,0.006,-0.0103,-0.0295,-0.035,-0.0319,-0.035,-0.04,-0.0397,-0.0411,-0.0409,-0.0407,-0.0406,-0.0405,0,0.0378,0.0412,0.0469,0.0509,0.0529,0.0605,0.0659,0.0702,0.0767,0.0851,0.0894,0.0828,0.079,0.0493,0.0195,-0.0097,-0.0198,-0.0311,-0.0406,-0.0357,-0.0391,-0.039,-0.0389,-0.0455,-0.0454,-0.0454,-0.0453,0,0.044,0.0453,0.049,0.0575,0.0637,0.0731,0.0818,0.0898,0.0968,0.1058,0.117,0.1154,0.0907,0.0597,0.0224,0.0026,-0.0269,-0.0305,-0.029,-0.0452,-0.0395,-0.0429,-0.0428,-0.0449,-0.0449,-0.0449,-0.045,-0.045,0.047,0.051,0.0555,0.0639,0.0719,0.0849,0.0957,0.1074,0.1229,0.134,0.1325,0.1217,0.0821,0.0301,0.0094,-0.0123,-0.0149,-0.0361,-0.0365,-0.037,-0.0346,-0.0287,-0.0314,-0.0314,-0.0314,-0.0313,-0.0313,0,0.05,0.0543,0.062,0.0727,0.0833,0.0875,0.1054,0.118,0.1397,0.1387,0.1453,0.0911,0.0604,0.0236,-0.0067,-0.0252,-0.028,-0.0335,-0.0401,-0.0405,-0.0408,-0.0389,-0.0368,-0.0368,-0.0368,-0.0368,0,0,0.0514,0.0575,0.0619,0.0796,0.0891,0.107,0.1192,0.1391,0.1441,0.1387,0.1189,0.0957,0.0493,0.0167,-0.006,-0.0176,-0.021,-0.0179,-0.0125,-0.0171,-0.0171,-0.0426,-0.0401,0,0,0,0,0]}],[{"header":{"parameterUnit":"m.s-1","parameterCategory":2,"la1":30.2991,"la2":30.254,"lo1":-89.0895,"lo2":-89.0444,"dy":0.0017,"dx":0.0017,"nx":28,"ny":28,"refTime":"2023-05-01T21:00:00:Z","depth":"4","parameterNumber":2,"parameterNumberName":"U-component_of_CURRENTS"},"data":[0,0,0,0,0,0,0,0,0,0,0,0,0,0,0,0,0,0,0,0,0,0,0,0,0,0,0,0,0,0,0,0,0,0,0,0,0,0,0,0,0,0,0,0,0,0,0,0,0,0,0,0,0,0,0,0,0,0,0.0074,0.0073,0,0.004,0.0039,0.0039,0.0004,0.0004,0.0003,0.0003,-0.0037,-0.0037,-0.0038,0,0,0,0,0,0,0,0,0,0,0,0,0,0.0097,0.0097,0.0074,0.0073,0.0073,0.004,0.0039,0.0039,0.0004,0.0004,0.0003,0.0003,-0.0037,-0.0037,-0.0038,0,0,0,0,0,0,0,0,0,0,0,0,0,0.0077,0.0097,0.0074,0.0052,0.0049,0.004,0.0039,0.0039,0.0005,0.0004,0.0003,0.0003,-0.0036,-0.0037,-0.0038,-0.003,0,0,-0.0041,-0.0041,0,0,0,0,0,0,0,0,0.0079,0.0077,0.0055,0.0053,0.0051,0.0026,0.0033,0.0016,0.0005,0.0021,0.0003,0.0002,-0.0016,-0.0018,-0.0023,-0.0032,-0.0034,-0.0041,-0.0042,-0.0042,-0.0042,0,0,0,0,0,0,0,0.008,0.0078,0.006,0.0055,0.0052,0.004,0.0036,0.003,0.0007,0.002,0.0017,0.0014,-0.0017,-0.0022,-0.0025,-0.0034,-0.0041,-0.0042,-0.0042,-0.0043,-0.0076,-0.0076,0,0,0,0,0,0,0.0086,0.0079,0.0061,0.0059,0.0063,0.004,0.0036,0.0034,0.0007,0.0002,0.0015,0.0013,-0.002,-0.0023,-0.0026,-0.0044,-0.0042,-0.0043,-0.0043,-0.0075,-0.0076,-0.0076,0,0,0,0,0,0,0.0086,0.0085,0.0063,0.0068,0.0065,0.004,0.0039,0.0034,0.0019,0.0003,-0.0002,0.0003,-0.0021,-0.0025,-0.0038,-0.0045,-0.0043,-0.0044,-0.0075,-0.0076,-0.0076,-0.0064,0,0,0,0,0,0,0.0087,0.0085,0.0083,0.0069,0.0064,0.0062,0.0039,0.0034,0.0019,0.0015,-0.0008,-0.0012,-0.0022,-0.0037,-0.0039,-0.0047,-0.0045,-0.0075,-0.0075,-0.0076,-0.0064,-0.0064,-0.0064,0,0,0,0,0,0.0088,0.0097,0.0083,0.0081,0.0064,0.0063,0.006,0.004,0.0019,0.0021,-0.0002,-0.0012,-0.0043,-0.0037,-0.004,-0.0048,-0.0074,-0.0075,-0.0076,-0.0064,-0.0064,-0.0064,0,0,0,0,0,0,0.0106,0.0094,0.0079,0.0082,0.0073,0.0057,0.0058,0.0037,0.002,0.0011,-0.0011,-0.0015,-0.0031,-0.004,-0.0034,-0.006,-0.0062,-0.0063,-0.0052,-0.0052,-0.0052,-0.0035,-0.0046,0,0,0,0,0,0.0109,0.0109,0.0096,0.0096,0.0095,0.0072,0.0066,0.005,0.0034,0.0025,0.0003,-0.002,-0.0034,-0.0044,-0.0056,-0.0065,-0.0056,-0.0075,-0.0075,-0.0075,-0.0064,-0.0065,-0.0064,-0.0079,-0.0079,-0.0078,0,0,0.0112,0.0107,0.0105,0.0099,0.009,0.0098,0.0067,0.0061,0.0056,0.0025,0.0007,-0.0019,-0.0037,-0.005,-0.0059,-0.006,-0.0062,-0.0076,-0.0075,-0.0064,-0.0066,-0.0064,-0.0063,-0.0079,-0.0079,-0.0079,0,0,0.0133,0.012,0.0132,0.0131,0.0121,0.011,0.0107,0.0085,0.0065,0.0046,0.0019,-0.0007,-0.0035,-0.0047,-0.0056,-0.0061,-0.0062,-0.0077,-0.0064,-0.0066,-0.0064,-0.0063,-0.0031,-0.0027,-0.0078,-0.0078,-0.0078,0,0.0139,0.015,0.0135,0.0152,0.015,0.0118,0.013,0.0114,0.0083,0.0067,0.0043,-0.0007,-0.0028,-0.0038,-0.0049,-0.006,-0.0053,-0.0062,-0.0065,-0.0063,-0.0062,-0.003,-0.0026,-0.0078,-0.0078,-0.0078,-0.0078,0,0.0171,0.018,0.019,0.0197,0.0195,0.02,0.018,0.0162,0.0123,0.0098,0.0063,0.0028,-0.0002,-0.002,-0.0039,-0.0046,-0.004,-0.0063,-0.0061,-0.0059,-0.0026,-0.0022,-0.0077,-0.0077,-0.0077,-0.0077,0,0,0.0182,0.0208,0.0212,0.0219,0.0216,0.0217,0.0211,0.0195,0.0182,0.0136,0.0118,0.0073,0.0037,0.0024,-0.0009,-0.0019,-0.0008,-0.0041,-0.0042,-0.0002,0.001,0.0023,0.0029,-0.0039,-0.0038,-0.0038,0.0036,0,0.0209,0.0251,0.0252,0.0276,0.029,0.0265,0.0262,0.0238,0.0203,0.0179,0.0131,0.0104,0.006,0.0035,0.0018,-0.001,0.0001,-0.0024,-0.0004,-0.0002,0.0015,0.0033,-0.0037,0.004,0.0041,0.0042,0.0042,0,0.0234,0.0259,0.0294,0.0305,0.0309,0.0312,0.0291,0.0283,0.0249,0.022,0.0184,0.0147,0.012,0.008,0.0059,0.0041,0.0033,0.002,0.0022,0.0034,0.0018,0.0032,0.005,0.005,0.0049,0.0048,0.0048,0,0.0236,0.028,0.0306,0.0314,0.0328,0.0322,0.0313,0.0286,0.0282,0.0243,0.0241,0.0194,0.0177,0.0145,0.0103,0.0079,0.0096,0.0062,0.0084,0.0087,0.0048,0.0045,0.0075,0.0075,0.0075,0.0075,0.0075,0,0.0248,0.0269,0.0309,0.032,0.0337,0.033,0.0332,0.0312,0.0303,0.0305,0.0259,0.0239,0.0188,0.018,0.0137,0.013,0.0127,0.0105,0.0104,0.0053,0.005,0.0053,0.0049,0.0078,0.0077,0.0076,0.0076,0,0.0226,0.0264,0.0296,0.0327,0.0337,0.0336,0.0353,0.0355,0.0345,0.035,0.0343,0.0296,0.0256,0.0239,0.0199,0.0191,0.017,0.0177,0.0161,0.0155,0.0161,0.0157,0.0214,0.0215,0.0216,0.0216,0.0217,0,0.0214,0.0232,0.0295,0.032,0.033,0.0345,0.0357,0.0362,0.0369,0.0363,0.0363,0.0342,0.0304,0.0278,0.0229,0.0214,0.0198,0.0236,0.0165,0.0181,0.0175,0.0169,0.0164,0.0218,0.0218,0.0219,0.0219,0,0.0182,0.0211,0.024,0.0303,0.0332,0.0364,0.0378,0.0389,0.0393,0.0422,0.0378,0.035,0.0325,0.0258,0.028,0.0242,0.0227,0.0244,0.0241,0.0175,0.0187,0.0179,0.0173,0.0222,0.0222,0.0221,0.0221,0,0.015,0.0166,0.0222,0.0268,0.0332,0.0357,0.0362,0.0373,0.0387,0.0401,0.0371,0.0324,0.0309,0.0273,0.0255,0.0261,0.024,0.0252,0.0248,0.0245,0.0214,0.0231,0.0295,0,0,0,0,0,0.0112,0.0136,0.0183,0.0239,0.0312,0.0342,0.0377,0.038,0.0406,0.0389,0.0389,0.0348,0.0312,0.0259,0.0263,0.0251,0.0237,0.026,0.0248,0.0239,0.0235,0.0192,0,0,0,0,0,0,0.0087,0.013,0.0165,0.0224,0.0261,0.0318,0.0339,0.0343,0.033,0.0352,0.031,0.0363,0.0298,0.0303,0.026,0.026,0.026,0.0254,0.0255,0.0241,0.0237,0.0235,0.0189,0,0,0,0,0]},{"header":{"parameterUnit":"m.s-1","parameterCategory":2,"la1":30.2991,"la2":30.254,"lo1":-89.0895,"lo2":-89.0444,"dy":0.0017,"dx":0.0017,"nx":28,"ny":28,"refTime":"2023-05-01T21:00:00:Z","depth":"4","parameterNumber":3,"parameterNumberName":"V-component_of_CURRENTS"},"data":[0,0,0,0,0,0,0,0,0,0,0,0,0,0,0,0,0,0,0,0,0,0,0,0,0,0,0,0,0,0,0,0,0,0,0,0,0,0,0,0,0,0,0,0,0,0,0,0,0,0,0,0,0,0,0,0,0,0,0.0015,0.0014,0,-0.0072,-0.0074,-0.0075,-0.0209,-0.0211,-0.0213,-0.0215,-0.0351,-0.0352,-0.0354,0,0,0,0,0,0,0,0,0,0,0,0,0,0.007,0.0069,0.0015,0.0014,0.0013,-0.0072,-0.0074,-0.0075,-0.0208,-0.0211,-0.0214,-0.0216,-0.035,-0.0352,-0.0354,0,0,0,0,0,0,0,0,0,0,0,0,0,0.0019,0.0069,0.0016,-0.0062,-0.007,-0.0072,-0.0074,-0.0075,-0.0208,-0.0211,-0.0214,-0.0218,-0.035,-0.0352,-0.0354,-0.03,0,0,-0.0361,-0.0362,0,0,0,0,0,0,0,0,0.0022,0.0017,-0.005,-0.0057,-0.0066,-0.0132,-0.0104,-0.0152,-0.0207,-0.0157,-0.0215,-0.0219,-0.0279,-0.0287,-0.0297,-0.0306,-0.0312,-0.0361,-0.0363,-0.0364,-0.0364,0,0,0,0,0,0,0,0.0026,0.002,-0.0021,-0.0051,-0.006,-0.0092,-0.0103,-0.0114,-0.0199,-0.0161,-0.0171,-0.0178,-0.0284,-0.0295,-0.0301,-0.0314,-0.0361,-0.0363,-0.0365,-0.0365,-0.0406,-0.0405,0,0,0,0,0,0,0.0043,0.0024,-0.0018,-0.0023,-0.0028,-0.009,-0.0103,-0.0108,-0.0199,-0.0215,-0.0175,-0.0183,-0.0289,-0.0299,-0.0307,-0.0368,-0.0364,-0.0366,-0.0367,-0.0406,-0.0406,-0.0405,0,0,0,0,0,0,0.0045,0.0041,-0.0014,-0.0001,-0.001,-0.0088,-0.0093,-0.0108,-0.0165,-0.0208,-0.0226,-0.022,-0.0292,-0.0304,-0.0352,-0.0371,-0.0367,-0.0369,-0.0406,-0.0406,-0.0405,-0.0415,0,0,0,0,0,0,0.0047,0.0042,0.0029,0.0001,-0.001,-0.0038,-0.009,-0.0107,-0.016,-0.0174,-0.0251,-0.0265,-0.0296,-0.0348,-0.0354,-0.0374,-0.037,-0.0407,-0.0406,-0.0406,-0.0415,-0.0415,-0.0414,0,0,0,0,0,0.0049,0.0049,0.003,0.0023,-0.002,-0.0037,-0.0046,-0.0113,-0.0159,-0.0178,-0.0236,-0.0266,-0.0349,-0.0349,-0.0356,-0.0377,-0.0407,-0.0406,-0.0406,-0.0415,-0.0415,-0.0414,0,0,0,0,0,0,0.0057,0.0036,0.0012,0.0002,-0.0025,-0.0061,-0.0086,-0.0124,-0.0182,-0.0212,-0.0261,-0.0277,-0.0326,-0.0338,-0.0337,-0.0384,-0.0382,-0.0383,-0.0386,-0.0387,-0.0386,-0.0391,-0.0372,0,0,0,0,0,0.0061,0.0054,0.0029,0.0016,0.0004,-0.0044,-0.0067,-0.011,-0.0154,-0.0187,-0.0239,-0.0286,-0.0315,-0.0345,-0.037,-0.039,-0.0391,-0.0406,-0.0406,-0.0406,-0.0412,-0.042,-0.0421,-0.0403,-0.0403,-0.0403,0,0,0.0058,0.0047,0.0039,0.0017,-0.0013,-0.0035,-0.0069,-0.0108,-0.0144,-0.0187,-0.0261,-0.0289,-0.0319,-0.0354,-0.0376,-0.0377,-0.0407,-0.0405,-0.0405,-0.0411,-0.0419,-0.0421,-0.0423,-0.0403,-0.0403,-0.0403,0,0,0.0056,0.0042,0.003,0.0012,-0.0027,-0.0047,-0.0064,-0.0114,-0.0158,-0.0204,-0.0249,-0.029,-0.0337,-0.0367,-0.0384,-0.039,-0.0405,-0.0399,-0.041,-0.0417,-0.0419,-0.0421,-0.0411,-0.0411,-0.0402,-0.0402,-0.0402,0,0.0044,0.0031,0.0023,0.0006,-0.0019,-0.0056,-0.0084,-0.0114,-0.018,-0.0211,-0.0235,-0.0312,-0.0342,-0.0381,-0.0391,-0.0393,-0.0393,-0.0413,-0.0419,-0.042,-0.0422,-0.0411,-0.0412,-0.0402,-0.0402,-0.0402,-0.0402,0,0.0037,0.0012,0.0005,-0.0028,-0.0048,-0.0076,-0.0109,-0.0148,-0.0198,-0.0231,-0.029,-0.0322,-0.0371,-0.038,-0.0394,-0.0421,-0.0414,-0.0417,-0.0422,-0.0425,-0.0412,-0.0413,-0.0402,-0.0402,-0.0402,-0.0402,0,0,0.0026,0.0002,-0.0009,-0.0033,-0.0074,-0.0091,-0.0134,-0.018,-0.022,-0.0271,-0.0319,-0.0363,-0.0387,-0.0405,-0.0424,-0.0433,-0.044,-0.0434,-0.0434,-0.043,-0.0446,-0.0432,-0.0431,-0.0448,-0.0449,-0.0449,-0.0428,0,0.0005,-0.0023,-0.0033,-0.0081,-0.0104,-0.0139,-0.017,-0.0215,-0.0256,-0.0304,-0.0337,-0.0381,-0.0392,-0.0418,-0.0431,-0.0443,-0.0445,-0.0445,-0.044,-0.0439,-0.0432,-0.0433,-0.0451,-0.0428,-0.0429,-0.0429,-0.0429,0,-0.0017,-0.003,-0.0071,-0.0112,-0.0127,-0.0161,-0.0222,-0.0252,-0.0305,-0.0336,-0.0379,-0.0403,-0.0435,-0.0435,-0.0457,-0.0458,-0.0455,-0.0453,-0.0453,-0.0441,-0.0427,-0.0428,-0.043,-0.043,-0.043,-0.043,-0.043,0,-0.0026,-0.0067,-0.01,-0.0116,-0.0158,-0.0196,-0.0226,-0.0277,-0.0296,-0.0356,-0.0371,-0.042,-0.0436,-0.045,-0.0449,-0.0459,-0.0453,-0.0464,-0.0442,-0.044,-0.0455,-0.0454,-0.0467,-0.0467,-0.0467,-0.0468,-0.0468,0,-0.0046,-0.0081,-0.0112,-0.0133,-0.0174,-0.0208,-0.0256,-0.0291,-0.0326,-0.0329,-0.0388,-0.0387,-0.0441,-0.0442,-0.0448,-0.0442,-0.045,-0.0445,-0.0439,-0.0456,-0.0455,-0.0455,-0.0453,-0.0467,-0.0467,-0.0467,-0.0467,0,-0.0062,-0.0084,-0.0119,-0.0164,-0.0182,-0.0214,-0.0252,-0.0268,-0.0312,-0.0314,-0.0325,-0.0364,-0.0372,-0.0402,-0.0415,-0.043,-0.0429,-0.0417,-0.0417,-0.041,-0.0412,-0.0412,-0.0411,-0.0411,-0.041,-0.041,-0.0409,0,-0.0071,-0.0092,-0.013,-0.0138,-0.0167,-0.0207,-0.022,-0.0261,-0.0251,-0.0275,-0.0253,-0.0287,-0.0307,-0.0319,-0.036,-0.0384,-0.0384,-0.0392,-0.0428,-0.0415,-0.0409,-0.0409,-0.0409,-0.0409,-0.0409,-0.0408,-0.0408,0,-0.0079,-0.0098,-0.0112,-0.0121,-0.0143,-0.0151,-0.0165,-0.0156,-0.0173,-0.0205,-0.0193,-0.0233,-0.0244,-0.0292,-0.0316,-0.0326,-0.0403,-0.0387,-0.0389,-0.0423,-0.0412,-0.0407,-0.0407,-0.0407,-0.0407,-0.0407,-0.0407,0,-0.0076,-0.0076,-0.0082,-0.0098,-0.0108,-0.0095,-0.0111,-0.0097,-0.0103,-0.0123,-0.0107,-0.016,-0.0199,-0.0256,-0.0262,-0.0298,-0.0318,-0.0341,-0.0346,-0.0348,-0.0347,-0.0325,-0.0287,0,0,0,0,0,-0.0066,-0.0053,-0.0051,-0.0053,-0.006,-0.0072,-0.0062,-0.0067,-0.0076,-0.0058,-0.0088,-0.0096,-0.0164,-0.0195,-0.0226,-0.0253,-0.0319,-0.0292,-0.0346,-0.0398,-0.04,-0.041,0,0,0,0,0,0,-0.0046,-0.0039,-0.0036,-0.0019,-0.002,-0.0016,-0.0019,-0.0024,-0.001,-0.0032,-0.0061,-0.0108,-0.0162,-0.0144,-0.0228,-0.0242,-0.0282,-0.0331,-0.0331,-0.0397,-0.0398,-0.04,-0.0411,0,0,0,0,0]}]]